[[{"header":{"parameterUnit":"m.s-1","parameterCategory":1,"la1":30.2991,"la2":30.254,"lo1":-89.0895,"lo2":-89.0444,"dy":0.0017,"dx":0.0017,"nx":28,"ny":28,"refTime":"2024-12-03T03:00:00:Z","depth":0,"parameterNumber":2,"parameterNumberName":"U-component_of_WINDS"},"data":[0,0,0,0,0,0,0,0,0,0,0,0,0,0,0,0,0,0,0,0,0,0,0,0,0,0,0,0,0,0,0,0,0,0,0,0,0,0,0,0,0,0,0,0,0,0,0,0,0,0,0,0,0,0,0,0,0,0,-1.3183,-1.3183,0,-1.3154,-1.3153,-1.3153,-1.3106,-1.3106,-1.3105,-1.3104,-1.3075,-1.3075,-1.3075,0,0,0,0,0,0,0,0,0,0,0,0,0,-1.32,-1.32,-1.3183,-1.3183,-1.3182,-1.3154,-1.3153,-1.3153,-1.3107,-1.3105,-1.3104,-1.3104,-1.3075,-1.3075,-1.3075,0,0,0,0,0,0,0,0,0,0,0,0,0,-1.3184,-1.32,-1.3183,-1.3156,-1.3153,-1.3154,-1.3153,-1.3153,-1.3107,-1.3105,-1.3104,-1.3103,-1.3075,-1.3075,-1.3075,-1.31,0,0,-1.3075,-1.3075,0,0,0,0,0,0,0,0,-1.3185,-1.3183,-1.316,-1.3158,-1.3155,-1.3132,-1.3148,-1.3135,-1.3107,-1.3124,-1.3104,-1.3102,-1.3095,-1.3093,-1.309,-1.3099,-1.3097,-1.3075,-1.3075,-1.3075,-1.3075,0,0,0,0,0,0,0,-1.3186,-1.3184,-1.3171,-1.316,-1.3157,-1.3145,-1.3141,-1.3146,-1.3117,-1.3123,-1.3119,-1.3116,-1.3093,-1.3091,-1.3089,-1.3097,-1.3075,-1.3075,-1.3075,-1.3075,-1.3125,-1.3126,0,0,0,0,0,0,-1.3191,-1.3185,-1.3172,-1.3171,-1.3167,-1.3146,-1.3142,-1.3141,-1.3117,-1.3112,-1.3118,-1.3114,-1.3091,-1.3089,-1.3088,-1.3117,-1.3075,-1.3075,-1.3075,-1.3123,-1.3125,-1.3126,0,0,0,0,0,0,-1.3192,-1.319,-1.3174,-1.3177,-1.3174,-1.3147,-1.3146,-1.3141,-1.3138,-1.3113,-1.3108,-1.312,-1.309,-1.3088,-1.3097,-1.3115,-1.3075,-1.3075,-1.3122,-1.3124,-1.3126,-1.3174,0,0,0,0,0,0,-1.3192,-1.3191,-1.32,-1.3178,-1.3174,-1.3183,-1.3147,-1.3141,-1.3138,-1.3134,-1.3114,-1.311,-1.3089,-1.3098,-1.3097,-1.3114,-1.3075,-1.312,-1.3123,-1.3125,-1.3171,-1.3177,-1.3183,0,0,0,0,0,-1.3193,-1.3215,-1.3201,-1.32,-1.3185,-1.3184,-1.3182,-1.3158,-1.314,-1.3149,-1.3133,-1.311,-1.3113,-1.3099,-1.3098,-1.3116,-1.3119,-1.3122,-1.3125,-1.3168,-1.3176,-1.3183,0,0,0,0,0,0,-1.3241,-1.3212,-1.3196,-1.3211,-1.3201,-1.3177,-1.3188,-1.3167,-1.3162,-1.3158,-1.3128,-1.3124,-1.3138,-1.3127,-1.3112,-1.3139,-1.3112,-1.3115,-1.3145,-1.3153,-1.3159,-1.3162,-1.3075,0,0,0,0,0,-1.3253,-1.3255,-1.3229,-1.3245,-1.3241,-1.3215,-1.3214,-1.3196,-1.3184,-1.318,-1.3164,-1.3154,-1.3152,-1.3152,-1.3149,-1.3168,-1.3164,-1.318,-1.3186,-1.3191,-1.3195,-1.3205,-1.3212,-1.3136,-1.3136,-1.3136,0,0,-1.3279,-1.3263,-1.3266,-1.3254,-1.3244,-1.3247,-1.3212,-1.3216,-1.3218,-1.318,-1.3188,-1.3176,-1.3163,-1.3177,-1.3183,-1.3169,-1.3214,-1.3195,-1.3199,-1.32,-1.3208,-1.3216,-1.3222,-1.3138,-1.3138,-1.3137,0,0,-1.3327,-1.3315,-1.3327,-1.3317,-1.3302,-1.3285,-1.3288,-1.3267,-1.3257,-1.3264,-1.3236,-1.3238,-1.3236,-1.3227,-1.3223,-1.3267,-1.3246,-1.3267,-1.33,-1.331,-1.3315,-1.3321,-1.3337,-1.3343,-1.327,-1.327,-1.327,0,-1.3361,-1.3363,-1.3336,-1.3342,-1.3338,-1.3303,-1.3315,-1.3307,-1.3292,-1.3291,-1.3275,-1.3271,-1.326,-1.3272,-1.3283,-1.328,-1.3283,-1.3269,-1.3317,-1.3322,-1.3326,-1.3341,-1.3348,-1.3273,-1.3272,-1.3272,-1.3272,0,-1.3406,-1.3408,-1.342,-1.3406,-1.3403,-1.3412,-1.3386,-1.3386,-1.3369,-1.3353,-1.3361,-1.3345,-1.3339,-1.334,-1.3323,-1.335,-1.3342,-1.3322,-1.3295,-1.3336,-1.335,-1.3356,-1.3277,-1.3276,-1.3275,-1.3274,0,0,-1.3484,-1.3454,-1.3459,-1.3452,-1.3433,-1.3434,-1.3442,-1.3435,-1.3436,-1.3426,-1.3432,-1.3431,-1.3412,-1.3407,-1.3388,-1.3397,-1.3434,-1.3376,-1.3375,-1.3388,-1.3463,-1.3479,-1.3487,-1.3419,-1.342,-1.3421,-1.3465,0,-1.3529,-1.354,-1.3515,-1.3533,-1.3535,-1.3501,-1.3508,-1.3497,-1.3482,-1.3482,-1.3466,-1.3466,-1.344,-1.3437,-1.3444,-1.3428,-1.3449,-1.3424,-1.3425,-1.3425,-1.3431,-1.3494,-1.3511,-1.3553,-1.347,-1.3471,-1.3471,0,-1.3583,-1.3576,-1.3594,-1.3573,-1.3572,-1.3579,-1.3571,-1.357,-1.3557,-1.3546,-1.354,-1.3518,-1.3524,-1.3497,-1.3505,-1.3489,-1.3488,-1.348,-1.3481,-1.3481,-1.3452,-1.3496,-1.3566,-1.3573,-1.348,-1.3479,-1.3478,0,-1.3639,-1.3634,-1.3644,-1.3639,-1.3615,-1.362,-1.361,-1.3596,-1.3593,-1.3586,-1.3584,-1.3578,-1.3575,-1.357,-1.3547,-1.353,-1.3558,-1.3529,-1.355,-1.355,-1.3558,-1.3558,-1.3629,-1.3556,-1.3556,-1.3556,-1.3555,0,-1.3693,-1.3705,-1.3669,-1.3675,-1.3688,-1.3659,-1.3673,-1.3659,-1.3646,-1.365,-1.362,-1.3624,-1.3592,-1.3593,-1.3574,-1.3584,-1.3583,-1.3574,-1.357,-1.3578,-1.3579,-1.3577,-1.3574,-1.3557,-1.3557,-1.3557,-1.3556,0,-1.3758,-1.3735,-1.3743,-1.3719,-1.3714,-1.3724,-1.3704,-1.3709,-1.3692,-1.3696,-1.3696,-1.367,-1.3668,-1.3644,-1.3638,-1.3626,-1.3643,-1.3632,-1.3648,-1.3645,-1.3667,-1.3666,-1.374,-1.3749,-1.3669,-1.367,-1.3671,0,-1.3795,-1.3803,-1.378,-1.378,-1.3771,-1.3772,-1.3769,-1.374,-1.3739,-1.3724,-1.3731,-1.3727,-1.3722,-1.3722,-1.3703,-1.3698,-1.3687,-1.3714,-1.3686,-1.3694,-1.3689,-1.3689,-1.369,-1.372,-1.3721,-1.3722,-1.3722,0,-1.3861,-1.3849,-1.3846,-1.3839,-1.3836,-1.3829,-1.3821,-1.3822,-1.3791,-1.3791,-1.3789,-1.3786,-1.3779,-1.3776,-1.3767,-1.3757,-1.3735,-1.3731,-1.3735,-1.3744,-1.3753,-1.375,-1.3665,-1.373,-1.3729,-1.3728,-1.3728,-1.3728,-1.3914,-1.392,-1.3905,-1.3902,-1.3893,-1.3885,-1.3888,-1.3872,-1.387,-1.3862,-1.3845,-1.3846,-1.3832,-1.3818,-1.381,-1.381,-1.3797,-1.3804,-1.3805,-1.3808,-1.3812,-1.3752,-1.3809,-1.3808,-1.3808,-1.3808,-1.3808,0,-1.398,-1.3968,-1.3966,-1.3955,-1.3953,-1.3931,-1.392,-1.392,-1.3921,-1.391,-1.3906,-1.3904,-1.3901,-1.3881,-1.3875,-1.3879,-1.3869,-1.3879,-1.3879,-1.3877,-1.3824,-1.3821,-1.3888,-1.3888,-1.3888,-1.3887,-1.3887,-1.3887,-1.4014,-1.4024,-1.401,-1.4014,-1.4002,-1.4003,-1.3998,-1.3991,-1.3982,-1.3981,-1.3978,-1.3965,-1.395,-1.3943,-1.3939,-1.3933,-1.3933,-1.3946,-1.3937,-1.3889,-1.3881,-1.3874,-1.3871,-1.3946,-1.3946,-1.399,-1.3991,-1.3991]},{"header":{"parameterUnit":"m.s-1","parameterCategory":1,"la1":30.2991,"la2":30.254,"lo1":-89.0895,"lo2":-89.0444,"dy":0.0017,"dx":0.0017,"nx":28,"ny":28,"refTime":"2024-12-03T03:00:00:Z","depth":0,"parameterNumber":3,"parameterNumberName":"V-component_of_WINDS"},"data":[0,0,0,0,0,0,0,0,0,0,0,0,0,0,0,0,0,0,0,0,0,0,0,0,0,0,0,0,0,0,0,0,0,0,0,0,0,0,0,0,0,0,0,0,0,0,0,0,0,0,0,0,0,0,0,0,0,0,-3.3885,-3.3886,0,-3.3949,-3.395,-3.3951,-3.396,-3.3959,-3.3958,-3.3958,-3.402,-3.4023,-3.4025,0,0,0,0,0,0,0,0,0,0,0,0,0,-3.3767,-3.3769,-3.3885,-3.3886,-3.3887,-3.3949,-3.395,-3.3951,-3.396,-3.3959,-3.3958,-3.3958,-3.402,-3.4022,-3.4025,0,0,0,0,0,0,0,0,0,0,0,0,0,-3.3824,-3.377,-3.3885,-3.3899,-3.3901,-3.3949,-3.395,-3.3951,-3.396,-3.3959,-3.3958,-3.3957,-3.4019,-3.4022,-3.4025,-3.4063,0,0,-3.4035,-3.4037,0,0,0,0,0,0,0,0,-3.382,-3.3828,-3.3896,-3.3898,-3.39,-3.3946,-3.3931,-3.3989,-3.396,-3.3937,-3.3958,-3.3957,-3.3996,-3.4001,-3.4015,-3.4066,-3.4069,-3.4036,-3.4038,-3.4039,-3.404,0,0,0,0,0,0,0,-3.3816,-3.3825,-3.391,-3.3897,-3.3899,-3.3901,-3.3908,-3.3942,-3.3971,-3.3939,-3.394,-3.3948,-3.3997,-3.4012,-3.4017,-3.407,-3.4036,-3.4039,-3.4041,-3.4042,-3.4157,-3.4158,0,0,0,0,0,0,-3.381,-3.3822,-3.3908,-3.3912,-3.3857,-3.3904,-3.3911,-3.3932,-3.397,-3.3975,-3.3948,-3.3948,-3.4007,-3.4013,-3.4019,-3.4067,-3.4039,-3.4042,-3.4044,-3.4155,-3.4157,-3.4158,0,0,0,0,0,0,-3.3808,-3.3818,-3.3906,-3.3867,-3.3879,-3.3907,-3.3929,-3.3933,-3.3948,-3.3977,-3.3982,-3.3959,-3.4006,-3.4014,-3.4053,-3.4069,-3.4044,-3.4047,-3.4154,-3.4156,-3.4157,-3.4163,0,0,0,0,0,0,-3.3804,-3.3817,-3.3832,-3.3868,-3.3881,-3.3939,-3.393,-3.3935,-3.3955,-3.3954,-3.3988,-3.3993,-3.4006,-3.4048,-3.4056,-3.4073,-3.4049,-3.4153,-3.4155,-3.4157,-3.4161,-3.4164,-3.4167,0,0,0,0,0,-3.38,-3.383,-3.3833,-3.3844,-3.3901,-3.394,-3.3948,-3.3963,-3.3956,-3.3971,-3.399,-3.3992,-3.4066,-3.4052,-3.4061,-3.4079,-3.4152,-3.4154,-3.4157,-3.416,-3.4164,-3.4167,0,0,0,0,0,0,-3.3795,-3.3835,-3.3839,-3.3881,-3.3908,-3.3942,-3.3961,-3.3966,-3.3994,-3.3993,-3.401,-3.4017,-3.4055,-3.4071,-3.4054,-3.4119,-3.4108,-3.4112,-3.4107,-3.4111,-3.4114,-3.411,-3.4052,0,0,0,0,0,-3.3799,-3.3829,-3.3862,-3.3896,-3.3909,-3.3933,-3.3951,-3.3961,-3.3988,-3.3999,-3.402,-3.4046,-3.4075,-3.4094,-3.4122,-3.4163,-3.4171,-3.418,-3.4183,-3.4186,-3.4189,-3.4213,-3.4218,-3.4166,-3.4166,-3.4166,0,0,-3.3807,-3.3833,-3.385,-3.3896,-3.3917,-3.3947,-3.3942,-3.3974,-3.3996,-3.4003,-3.4042,-3.4058,-3.4088,-3.4128,-3.4147,-3.4142,-3.4205,-3.4189,-3.419,-3.4193,-3.4216,-3.4221,-3.4225,-3.4167,-3.4167,-3.4167,0,0,-3.3837,-3.386,-3.3891,-3.3913,-3.3946,-3.3962,-3.397,-3.4004,-3.4016,-3.4055,-3.4061,-3.4087,-3.4137,-3.4158,-3.4175,-3.4215,-3.4218,-3.4223,-3.4238,-3.4261,-3.4265,-3.4269,-3.4284,-3.4289,-3.4227,-3.4227,-3.4227,0,-3.3843,-3.3889,-3.3907,-3.3939,-3.3959,-3.3968,-3.4,-3.402,-3.406,-3.4073,-3.4068,-3.4131,-3.4152,-3.4198,-3.4207,-3.4221,-3.423,-3.422,-3.4263,-3.4267,-3.4271,-3.4286,-3.4291,-3.4227,-3.4227,-3.4227,-3.4227,0,-3.3895,-3.3927,-3.3949,-3.3989,-3.4011,-3.4043,-3.4064,-3.4085,-3.4093,-3.4109,-3.4149,-3.4174,-3.4208,-3.4219,-3.4227,-3.4266,-3.4263,-3.426,-3.425,-3.4276,-3.429,-3.4296,-3.4228,-3.4228,-3.4228,-3.4227,0,0,-3.3924,-3.3974,-3.3982,-3.4001,-3.4038,-3.4063,-3.4095,-3.413,-3.4147,-3.4174,-3.4202,-3.4244,-3.4242,-3.4262,-3.4272,-3.4292,-3.4323,-3.4287,-3.4288,-3.4293,-3.4369,-3.4371,-3.4377,-3.4325,-3.4326,-3.4327,-3.4367,0,-3.3959,-3.4018,-3.4035,-3.4085,-3.4115,-3.4124,-3.4152,-3.4178,-3.4194,-3.4221,-3.4238,-3.4269,-3.4263,-3.4276,-3.4296,-3.4315,-3.4338,-3.4312,-3.435,-3.4351,-3.4343,-3.4385,-3.4387,-3.4424,-3.4372,-3.4373,-3.4374,0,-3.4008,-3.4039,-3.4092,-3.4127,-3.414,-3.4165,-3.4199,-3.4225,-3.4254,-3.4264,-3.4287,-3.4295,-3.4328,-3.4316,-3.4362,-3.4344,-3.4361,-3.4372,-3.4374,-3.4379,-3.4365,-3.4391,-3.4436,-3.4442,-3.4382,-3.4382,-3.4381,0,-3.4025,-3.4079,-3.4118,-3.4134,-3.4175,-3.4193,-3.421,-3.4239,-3.4259,-3.4288,-3.4301,-3.4333,-3.435,-3.4375,-3.4391,-3.4381,-3.4436,-3.4425,-3.4446,-3.4445,-3.4457,-3.4457,-3.4506,-3.4467,-3.4467,-3.4467,-3.4466,0,-3.4064,-3.4096,-3.4127,-3.4151,-3.4187,-3.4206,-3.4241,-3.4259,-3.4284,-3.4311,-3.4321,-3.4346,-3.4366,-3.4394,-3.4406,-3.4443,-3.4451,-3.446,-3.4463,-3.446,-3.4459,-3.4471,-3.4469,-3.4468,-3.4468,-3.4467,-3.4467,0,-3.4089,-3.4111,-3.4154,-3.419,-3.42,-3.4225,-3.4256,-3.4279,-3.4296,-3.433,-3.4339,-3.4365,-3.4398,-3.4417,-3.4458,-3.4467,-3.4508,-3.451,-3.4499,-3.4501,-3.4521,-3.4519,-3.4581,-3.459,-3.4543,-3.4544,-3.4544,0,-3.4112,-3.4138,-3.4177,-3.4197,-3.4216,-3.4247,-3.4268,-3.4287,-3.4308,-3.4344,-3.4363,-3.4397,-3.4426,-3.4478,-3.45,-3.4532,-3.4535,-3.4554,-3.4539,-3.4536,-3.4536,-3.4535,-3.4538,-3.4557,-3.4557,-3.4558,-3.4558,0,-3.4152,-3.4162,-3.4193,-3.4228,-3.4253,-3.4281,-3.4309,-3.4324,-3.4347,-3.4371,-3.4406,-3.4428,-3.4471,-3.4505,-3.4539,-3.4556,-3.4561,-3.4562,-3.4569,-3.4566,-3.4559,-3.4564,-3.4507,-3.4561,-3.4561,-3.456,-3.456,-3.456,-3.4178,-3.4201,-3.4233,-3.4268,-3.4291,-3.4317,-3.4341,-3.4361,-3.4391,-3.4429,-3.4438,-3.4475,-3.4503,-3.455,-3.4568,-3.4597,-3.4593,-3.4602,-3.4605,-3.4607,-3.4608,-3.4554,-3.4603,-3.4602,-3.4602,-3.4602,-3.4602,0,-3.4219,-3.424,-3.4272,-3.4311,-3.4338,-3.4342,-3.4372,-3.4394,-3.4427,-3.4454,-3.4483,-3.4523,-3.4556,-3.4581,-3.4615,-3.4633,-3.4636,-3.4641,-3.464,-3.4644,-3.4609,-3.4601,-3.4638,-3.4638,-3.4638,-3.4638,-3.4638,-3.4638,-3.4244,-3.4284,-3.4298,-3.435,-3.437,-3.4408,-3.4425,-3.4449,-3.4471,-3.4517,-3.4545,-3.4561,-3.4587,-3.4623,-3.4653,-3.466,-3.4672,-3.4677,-3.4684,-3.465,-3.4647,-3.4643,-3.4635,-3.4679,-3.4679,-3.4717,-3.4717,-3.4717]}]]